Location: Clanezzo
(45.7500°N, 9.6000°E)
Time: 16:41:36
(UTC+00:00)

USA 308 - Visible Passes

Search period start: 25 September 2021 00:00
Search period end: 05 October 2021 00:00
Orbit: 566 x 573 km, 54.0° (Epoch: 20 September)

Date Brightness Start Highest point End Pass type
(mag) Time Alt. Az. Time Alt. Az. Time Alt. Az.
25 Sep 4.5 17:45:35 10° WNW 17:49:13 26° N 17:52:51 10° ENE visible
25 Sep 3.6 19:25:51 10° NW 19:29:47 43° NNE 19:29:47 43° NNE visible
25 Sep 6.1 21:05:50 10° WNW 21:05:51 10° WNW 21:05:51 10° WNW visible
26 Sep 4.4 17:46:51 10° NW 17:50:31 27° N 17:54:12 10° ENE visible
26 Sep 3.4 19:26:55 10° NW 19:30:44 53° N 19:30:44 53° N visible
27 Sep 4.2 17:48:03 10° NW 17:51:49 29° N 17:55:35 10° ENE visible
27 Sep 3.2 19:28:00 10° NW 19:31:43 63° NNW 19:31:43 63° NNW visible
28 Sep 4.0 17:49:12 10° NW 17:53:04 33° NNE 17:56:40 12° E visible
28 Sep 3.2 19:29:05 10° WNW 19:32:45 63° WNW 19:32:45 63° WNW visible
29 Sep 3.7 17:50:17 10° NW 17:54:18 39° NNE 17:57:44 13° E visible
29 Sep 3.5 19:30:13 10° WNW 19:33:49 52° WSW 19:33:49 52° WSW visible
30 Sep 3.4 17:51:21 10° NW 17:55:30 48° NNE 17:58:52 15° E visible
30 Sep 4.0 19:31:25 10° WNW 19:34:56 38° WSW 19:34:56 38° WSW visible
01 Oct 3.0 17:52:24 10° NW 17:56:38 63° NNE 18:00:04 15° ESE visible
01 Oct 4.5 19:32:43 10° WNW 19:36:09 27° SW 19:36:09 27° SW visible
02 Oct 2.9 17:53:27 10° NW 17:57:44 84° NNE 18:01:22 14° ESE visible
02 Oct 5.0 19:34:13 10° W 19:37:13 19° SW 19:37:27 19° SW visible
03 Oct 3.1 17:54:32 10° WNW 17:58:47 70° SW 18:02:45 12° SE visible
03 Oct 5.5 19:36:15 10° W 19:38:02 12° SW 19:38:51 12° SW visible
04 Oct 3.7 17:55:40 10° WNW 17:59:46 48° SW 18:03:52 10° SSE visible
